START_TIME,STEP,MOV.,M15,t_acc.,M20,t_acc.
1989-08-24T00:00:44.840 ,5,0,0.,24.0,0.,24.0
1989-08-24T00:01:08.840 ,4,1,0.,24.0,0.,24.0
1989-08-24T00:01:32.840 ,4,0,0.,24.0,0.,24.0
1989-08-24T00:01:56.840 ,3,1,0.,24.0,0.,24.0
1989-08-24T00:02:20.840 ,3,0,0.,24.0,0.,24.0
1989-08-24T00:02:44.840 ,2,1,0.,24.0,0.,24.0
1989-08-24T00:03:08.840 ,2,0,0.,24.0,0.,24.0
1989-08-24T00:03:32.840 ,1,1,0.,24.0,0.,24.0
1989-08-24T00:03:56.840 ,1,0,0.,24.0,0.,24.0
1989-08-24T00:04:20.840 ,0,1,0.,24.0,0.,24.0
1989-08-24T00:04:44.840 ,0,0,0.,24.0,0.,24.0
1989-08-24T00:05:08.840 ,0,1,0.,24.0,0.,24.0
1989-08-24T00:05:32.840 ,0,0,0.,24.0,0.,24.0
1989-08-24T00:05:56.840 ,1,1,0.,24.0,0.,24.0
1989-08-24T00:06:20.840 ,1,0,0.,24.0,0.,24.0
1989-08-24T00:06:44.840 ,2,1,0.,24.0,0.,24.0
1989-08-24T00:07:08.840 ,2,0,0.,24.0,0.,24.0
1989-08-24T00:07:32.840 ,3,1,0.,24.0,0.,24.0
1989-08-24T00:07:56.840 ,3,0,0.,24.0,0.,24.0
1989-08-24T00:08:20.840 ,4,1,0.,24.0,0.,24.0
1989-08-24T00:08:44.840 ,4,0,0.,24.0,0.,24.0
1989-08-24T00:09:08.840 ,5,1,0.,24.0,0.,24.0
1989-08-24T00:09:32.840 ,5,0,0.,24.0,0.,24.0
1989-08-24T00:09:56.840 ,6,1,0.,24.0,0.,24.0
1989-08-24T00:10:20.840 ,6,0,0.,24.0,0.,24.0
1989-08-24T00:10:44.840 ,7,1,0.,24.0,0.,24.0
1989-08-24T00:11:08.840 ,7,0,0.,24.0,0.,24.0
1989-08-24T00:11:32.840 ,7,1,0.,24.0,0.,24.0
1989-08-24T00:11:56.840 ,7,0,0.,24.0,0.,24.0
1989-08-24T00:12:20.840 ,6,1,0.,24.0,0.,24.0
1989-08-24T00:12:44.840 ,6,0,0.,24.0,0.,24.0
1989-08-24T00:13:08.840 ,5,1,0.,24.0,0.,24.0
1989-08-24T00:13:32.840 ,5,0,0.,24.0,0.,24.0
1989-08-24T00:13:56.840 ,4,1,0.,24.0,0.,24.0
1989-08-24T00:14:20.840 ,4,0,0.,24.0,0.,24.0
1989-08-24T00:14:44.840 ,3,1,0.,24.0,0.,24.0
1989-08-24T00:15:08.840 ,3,0,0.,24.0,0.,24.0
1989-08-24T00:15:32.840 ,2,1,0.,24.0,0.,24.0
1989-08-24T00:15:56.840 ,2,0,0.,24.0,0.,24.0
1989-08-24T00:16:20.840 ,1,1,0.,24.0,0.,24.0
1989-08-24T00:16:44.840 ,1,0,0.,24.0,0.,24.0
1989-08-24T00:17:08.840 ,0,1,0.,24.0,0.,24.0
1989-08-24T00:17:32.840 ,0,0,0.,24.0,0.,24.0
1989-08-24T00:17:56.840 ,0,1,0.,24.0,0.,24.0
1989-08-24T00:18:20.840 ,0,0,0.,24.0,0.,24.0
1989-08-24T00:18:44.840 ,1,1,0.,24.0,0.,24.0
1989-08-24T00:19:08.840 ,1,0,0.,24.0,0.,24.0
1989-08-24T00:19:32.840 ,2,1,0.,24.0,0.,24.0
1989-08-24T00:19:56.840 ,2,0,0.,24.0,0.,24.0
1989-08-24T00:20:20.840 ,3,1,0.,24.0,0.,24.0
1989-08-24T00:20:44.840 ,3,0,0.,24.0,0.,24.0
1989-08-24T00:21:08.840 ,4,1,0.,24.0,0.,24.0
1989-08-24T00:21:32.840 ,4,0,0.,24.0,0.,24.0
1989-08-24T00:21:56.840 ,5,1,0.,24.0,0.,24.0
1989-08-24T00:22:20.840 ,5,0,0.,24.0,0.,24.0
1989-08-24T00:22:44.840 ,6,1,0.,24.0,0.,24.0
1989-08-24T00:23:08.840 ,6,0,0.,24.0,0.,24.0
1989-08-24T00:23:32.840 ,7,1,0.,24.0,0.,24.0
1989-08-24T00:23:56.840 ,7,0,0.,24.0,0.,24.0
1989-08-24T00:24:20.840 ,7,1,0.,24.0,0.,24.0
1989-08-24T00:24:44.840 ,7,0,0.,24.0,0.,24.0
1989-08-24T00:25:08.840 ,6,1,0.,24.0,0.,24.0
1989-08-24T00:25:32.840 ,6,0,0.,24.0,0.,24.0
1989-08-24T00:25:56.840 ,5,1,0.,24.0,0.,24.0
1989-08-24T00:26:20.840 ,5,0,0.,24.0,0.,24.0
1989-08-24T00:26:44.840 ,4,1,0.,24.0,0.,24.0
1989-08-24T00:27:08.840 ,4,0,0.,24.0,0.,24.0
1989-08-24T00:27:32.840 ,3,1,0.,24.0,0.,24.0
1989-08-24T00:27:56.840 ,3,0,0.,24.0,0.,24.0
1989-08-24T00:28:20.840 ,2,1,0.,24.0,0.,24.0
1989-08-24T00:28:44.840 ,2,0,0.,24.0,0.,24.0
1989-08-24T00:29:08.840 ,1,1,0.,24.0,0.,24.0
1989-08-24T00:29:32.840 ,1,0,0.,24.0,0.,24.0
1989-08-24T00:29:56.840 ,0,1,0.,24.0,0.,24.0
1989-08-24T00:30:20.840 ,0,0,0.,24.0,0.,24.0
1989-08-24T00:30:44.840 ,0,1,0.,24.0,0.,24.0
1989-08-24T00:31:08.840 ,0,0,0.,24.0,0.,24.0
1989-08-24T00:31:32.840 ,1,1,0.,24.0,0.,24.0
1989-08-24T00:31:56.840 ,1,0,0.,24.0,0.,24.0
1989-08-24T00:32:20.840 ,2,1,0.,24.0,0.,24.0
1989-08-24T00:32:44.840 ,2,0,0.,24.0,0.,24.0
1989-08-24T00:33:08.840 ,3,1,0.,24.0,0.,24.0
1989-08-24T00:33:32.840 ,3,0,0.,24.0,0.,24.0
1989-08-24T00:33:56.840 ,4,1,0.,24.0,0.,24.0
1989-08-24T00:34:20.840 ,4,0,0.,24.0,0.,24.0
1989-08-24T00:34:44.840 ,5,1,0.,24.0,0.,24.0
1989-08-24T00:35:08.840 ,5,0,0.,24.0,0.,24.0
1989-08-24T00:35:32.840 ,6,1,0.,24.0,0.,24.0
1989-08-24T00:35:56.840 ,6,0,0.,24.0,0.,24.0
1989-08-24T00:36:20.840 ,7,1,0.,24.0,0.,24.0
1989-08-24T00:36:44.840 ,7,0,0.,24.0,0.,24.0
1989-08-24T00:37:08.840 ,7,1,0.,24.0,0.,24.0
1989-08-24T00:37:32.840 ,7,0,0.,24.0,0.,24.0
1989-08-24T00:37:56.840 ,6,1,0.,24.0,0.,24.0
1989-08-24T00:38:20.840 ,6,0,0.,24.0,0.,24.0
1989-08-24T00:38:44.840 ,5,1,0.,24.0,0.,24.0
1989-08-24T00:39:08.840 ,5,0,0.,24.0,0.,24.0
1989-08-24T00:39:32.840 ,4,1,0.,24.0,0.,24.0
1989-08-24T00:39:56.840 ,4,0,0.,24.0,0.,24.0
1989-08-24T00:40:20.840 ,3,1,0.,24.0,0.,24.0
1989-08-24T00:40:44.840 ,3,0,0.,24.0,0.,24.0
1989-08-24T00:41:08.840 ,2,1,0.,24.0,0.,24.0
1989-08-24T00:41:32.840 ,2,0,0.,24.0,0.,24.0
1989-08-24T00:41:56.840 ,1,1,0.,24.0,0.,24.0
1989-08-24T00:42:20.840 ,1,0,0.,24.0,0.,24.0
1989-08-24T00:42:44.840 ,0,1,0.,24.0,0.,24.0
1989-08-24T00:43:08.840 ,0,0,0.,24.0,0.,24.0
1989-08-24T00:43:32.840 ,0,1,0.,24.0,0.,24.0
1989-08-24T00:43:56.840 ,0,0,0.,24.0,0.,24.0
1989-08-24T00:44:20.840 ,1,1,0.,24.0,0.,24.0
1989-08-24T00:44:44.840 ,1,0,0.,24.0,0.,24.0
1989-08-24T00:45:08.840 ,2,1,0.,24.0,0.,24.0
1989-08-24T00:45:32.840 ,2,0,0.,24.0,0.,24.0
1989-08-24T00:45:56.840 ,3,1,0.,24.0,0.,24.0
1989-08-24T00:46:20.840 ,3,0,0.,24.0,0.,24.0
1989-08-24T00:46:44.840 ,4,1,0.,24.0,0.,24.0
1989-08-24T00:47:08.840 ,4,0,0.,24.0,0.,24.0
1989-08-24T00:47:32.840 ,5,1,0.,24.0,0.,24.0
1989-08-24T00:47:56.840 ,5,0,0.,24.0,0.,24.0
1989-08-24T00:48:20.840 ,6,1,0.,24.0,0.,24.0
1989-08-24T00:48:44.840 ,6,0,0.,24.0,0.,24.0
1989-08-24T00:49:08.840 ,7,1,0.,24.0,0.,24.0
1989-08-24T00:49:32.840 ,7,0,0.,24.0,0.,24.0
1989-08-24T00:49:56.840 ,7,1,0.,24.0,0.,24.0
1989-08-24T00:50:20.840 ,7,0,0.,24.0,0.,24.0
1989-08-24T00:50:44.840 ,6,1,0.,24.0,0.,24.0
1989-08-24T00:51:08.840 ,6,0,0.,24.0,0.,24.0
1989-08-24T00:51:32.840 ,5,1,0.,24.0,0.,24.0
1989-08-24T00:51:56.840 ,5,0,0.,24.0,0.,24.0
1989-08-24T00:52:20.840 ,4,1,0.,24.0,0.,24.0
1989-08-24T00:52:44.840 ,4,0,0.,24.0,0.,24.0
1989-08-24T00:53:08.840 ,3,1,0.,24.0,0.,24.0
1989-08-24T00:53:32.840 ,3,0,0.,24.0,0.,24.0
1989-08-24T00:53:56.840 ,2,1,0.,24.0,0.,24.0
1989-08-24T00:54:20.840 ,2,0,0.,24.0,0.,24.0
1989-08-24T00:54:44.840 ,1,1,0.,24.0,0.,24.0
1989-08-24T00:55:08.840 ,1,0,0.,24.0,0.,24.0
1989-08-24T00:55:32.840 ,0,1,0.,24.0,0.,24.0
1989-08-24T00:55:56.840 ,0,0,0.,24.0,0.,24.0
1989-08-24T00:56:20.840 ,0,1,0.,24.0,0.,24.0
1989-08-24T00:56:44.840 ,0,0,0.,24.0,0.,24.0
1989-08-24T00:57:08.840 ,1,1,0.,24.0,0.,24.0
1989-08-24T00:57:32.840 ,1,0,0.,24.0,0.,24.0
1989-08-24T00:57:56.840 ,2,1,0.,24.0,0.,24.0
1989-08-24T00:58:20.840 ,2,0,0.,24.0,0.,24.0
1989-08-24T00:58:44.840 ,3,1,0.,24.0,0.,24.0
1989-08-24T00:59:08.840 ,3,0,0.,24.0,0.,24.0
1989-08-24T00:59:32.840 ,4,1,0.,24.0,0.,24.0
1989-08-24T00:59:56.840 ,4,0,0.,24.0,0.,24.0
1989-08-24T01:00:20.840 ,5,1,0.,24.0,0.,24.0
1989-08-24T01:00:44.840 ,5,0,0.,24.0,0.,24.0
1989-08-24T01:01:08.840 ,6,1,0.,24.0,0.,24.0
1989-08-24T01:01:32.840 ,6,0,0.,24.0,0.,24.0
1989-08-24T01:01:56.840 ,7,1,0.,24.0,0.,24.0
1989-08-24T01:02:20.840 ,7,0,0.,24.0,0.,24.0
1989-08-24T01:02:44.840 ,7,1,0.,24.0,0.,24.0
1989-08-24T01:03:08.840 ,7,0,0.,24.0,0.,24.0
1989-08-24T01:03:32.840 ,6,1,0.,24.0,0.,24.0
1989-08-24T01:03:56.840 ,6,0,0.,24.0,0.,24.0
1989-08-24T01:04:20.840 ,5,1,0.,24.0,0.,24.0
1989-08-24T01:04:44.840 ,5,0,0.,24.0,0.,24.0
1989-08-24T01:05:08.840 ,4,1,0.,24.0,0.,24.0
1989-08-24T01:05:32.840 ,4,0,0.,24.0,0.,24.0
1989-08-24T01:05:56.840 ,3,1,0.,24.0,0.,24.0
1989-08-24T01:06:20.840 ,3,0,0.,24.0,0.,24.0
1989-08-24T01:06:44.840 ,2,1,0.,24.0,0.,24.0
1989-08-24T01:07:08.840 ,2,0,0.,24.0,0.,24.0
1989-08-24T01:07:32.840 ,1,1,0.,24.0,0.,24.0
1989-08-24T01:07:56.840 ,1,0,0.,24.0,0.,24.0
1989-08-24T01:08:20.840 ,0,1,0.,24.0,0.,24.0
1989-08-24T01:08:44.840 ,0,0,0.,24.0,0.,24.0
1989-08-24T01:09:08.840 ,0,1,0.,24.0,0.,24.0
1989-08-24T01:09:32.840 ,0,0,0.,24.0,0.,24.0
1989-08-24T01:09:56.840 ,1,1,0.,24.0,0.,24.0
1989-08-24T01:10:20.840 ,1,0,0.,24.0,0.,24.0
1989-08-24T01:10:44.840 ,2,1,0.,24.0,0.,24.0
1989-08-24T01:11:08.840 ,2,0,0.,24.0,0.,24.0
1989-08-24T01:11:32.840 ,3,1,0.,24.0,0.,24.0
1989-08-24T01:11:56.840 ,3,0,0.,24.0,0.,24.0
1989-08-24T01:12:20.840 ,4,1,0.,24.0,0.,24.0
1989-08-24T01:12:44.840 ,4,0,0.,24.0,0.,24.0
1989-08-24T01:13:08.840 ,5,1,0.,24.0,0.,24.0
1989-08-24T01:13:32.840 ,5,0,0.,24.0,0.,24.0
1989-08-24T01:13:56.840 ,6,1,0.,24.0,0.,24.0
1989-08-24T01:14:20.840 ,6,0,0.,24.0,0.,24.0
1989-08-24T01:14:44.840 ,7,1,0.,24.0,0.,24.0
1989-08-24T01:15:08.840 ,7,0,0.,24.0,0.,24.0
1989-08-24T01:15:32.840 ,7,1,0.,24.0,0.,24.0
1989-08-24T01:15:56.840 ,7,0,0.,24.0,0.,24.0
1989-08-24T01:16:20.840 ,6,1,0.,24.0,0.,24.0
1989-08-24T01:16:44.840 ,6,0,0.,24.0,0.,24.0
1989-08-24T01:17:08.830 ,5,1,0.,24.0,0.,24.0
1989-08-24T01:17:32.840 ,5,0,0.,24.0,0.,24.0
1989-08-24T01:17:56.840 ,4,1,0.,24.0,0.,24.0
1989-08-24T01:18:20.840 ,4,0,0.,24.0,0.,24.0
1989-08-24T01:18:44.840 ,3,1,0.,24.0,0.,24.0
1989-08-24T01:19:08.840 ,3,0,0.,24.0,0.,24.0
1989-08-24T01:19:32.840 ,2,1,0.,24.0,0.,24.0
1989-08-24T01:19:56.840 ,2,0,0.,24.0,0.,24.0
1989-08-24T01:20:20.840 ,1,1,0.,24.0,0.,24.0
1989-08-24T01:20:44.840 ,1,0,0.,24.0,0.,24.0
1989-08-24T01:21:08.840 ,0,1,0.,24.0,0.,24.0
1989-08-24T01:21:32.840 ,0,0,0.,24.0,0.,24.0
1989-08-24T01:21:56.840 ,0,1,0.,24.0,0.,24.0
1989-08-24T01:22:20.840 ,0,0,0.,24.0,0.,24.0
1989-08-24T01:22:44.840 ,1,1,0.,24.0,0.,24.0
1989-08-24T01:23:08.840 ,1,0,0.,24.0,0.,24.0
1989-08-24T01:23:32.840 ,2,1,0.,24.0,0.,24.0
1989-08-24T01:23:56.840 ,2,0,0.,24.0,0.,24.0
1989-08-24T01:24:20.840 ,3,1,0.,24.0,0.,24.0
1989-08-24T01:24:44.840 ,3,0,0.,24.0,0.,24.0
1989-08-24T01:25:08.840 ,4,1,0.,24.0,0.,24.0
1989-08-24T01:25:32.840 ,4,0,0.,24.0,0.,24.0
1989-08-24T01:25:56.840 ,5,1,0.,24.0,0.,24.0
1989-08-24T01:26:20.840 ,5,0,0.,24.0,0.,24.0
1989-08-24T01:26:44.830 ,6,1,0.,24.0,0.,24.0
1989-08-24T01:27:08.830 ,6,0,0.,24.0,0.,24.0
1989-08-24T01:27:32.830 ,7,1,0.,24.0,0.,24.0
1989-08-24T01:27:56.830 ,7,0,0.,24.0,0.,24.0
1989-08-24T01:28:20.830 ,7,1,0.,24.0,0.,24.0
1989-08-24T01:28:44.830 ,7,0,0.,24.0,0.,24.0
1989-08-24T01:29:08.830 ,6,1,0.,24.0,0.,24.0
1989-08-24T01:29:32.830 ,6,0,0.,24.0,0.,24.0
1989-08-24T01:29:56.830 ,5,1,0.,24.0,0.,24.0
1989-08-24T01:30:20.830 ,5,0,0.,24.0,0.,24.0
1989-08-24T01:30:44.830 ,4,1,0.,24.0,0.,24.0
1989-08-24T01:31:08.830 ,4,0,0.,24.0,0.,24.0
1989-08-24T01:31:32.830 ,3,1,0.,24.0,0.,24.0
1989-08-24T01:31:56.830 ,3,0,0.,24.0,0.,24.0
1989-08-24T01:32:20.830 ,2,1,0.,24.0,0.,24.0
1989-08-24T01:32:44.830 ,2,0,0.,24.0,0.,24.0
1989-08-24T01:33:08.830 ,1,1,0.,24.0,0.,24.0
1989-08-24T01:33:32.830 ,1,0,0.,24.0,0.,24.0
1989-08-24T01:33:56.830 ,0,1,0.,24.0,0.,24.0
1989-08-24T01:34:20.830 ,0,0,0.,24.0,0.,24.0
1989-08-24T01:34:44.830 ,0,1,0.,24.0,0.,24.0
1989-08-24T01:35:08.830 ,0,0,0.,24.0,0.,24.0
1989-08-24T01:35:32.830 ,1,1,0.,24.0,0.,24.0
1989-08-24T01:35:56.830 ,1,0,0.,24.0,0.,24.0
1989-08-24T01:36:20.830 ,2,1,0.,24.0,0.,24.0
1989-08-24T01:36:44.830 ,2,0,0.,24.0,0.,24.0
1989-08-24T01:37:08.830 ,3,1,0.,24.0,0.,24.0
1989-08-24T01:37:32.830 ,3,0,0.,24.0,0.,24.0
1989-08-24T01:37:56.830 ,4,1,0.,24.0,0.,24.0
1989-08-24T01:38:20.830 ,4,0,0.,24.0,0.,24.0
1989-08-24T01:38:44.830 ,5,1,0.,24.0,0.,24.0
1989-08-24T01:39:08.830 ,5,0,0.,24.0,0.,24.0
1989-08-24T01:39:32.830 ,6,1,0.,24.0,0.,24.0
1989-08-24T01:39:56.830 ,6,0,0.,24.0,0.,24.0
1989-08-24T01:40:20.830 ,7,1,0.,24.0,0.,24.0
1989-08-24T01:40:44.830 ,7,0,0.,24.0,0.,24.0
1989-08-24T01:41:08.830 ,7,1,0.,24.0,0.,24.0
1989-08-24T01:41:32.830 ,7,0,0.,24.0,0.,24.0
1989-08-24T01:41:56.830 ,6,1,0.,24.0,0.,24.0
1989-08-24T01:42:20.830 ,6,0,0.,24.0,0.,24.0
1989-08-24T01:42:44.830 ,5,1,0.,24.0,0.,24.0
1989-08-24T01:43:08.830 ,5,0,0.,24.0,0.,24.0
1989-08-24T01:43:32.830 ,4,1,0.,24.0,0.,24.0
1989-08-24T01:43:56.830 ,4,0,0.,24.0,0.,24.0
1989-08-24T01:44:20.830 ,3,1,0.,24.0,0.,24.0
1989-08-24T01:44:44.830 ,3,0,0.,24.0,0.,24.0
1989-08-24T01:45:08.830 ,2,1,0.,24.0,0.,24.0
1989-08-24T01:45:32.830 ,2,0,0.,24.0,0.,24.0
1989-08-24T01:45:56.830 ,1,1,0.,24.0,0.,24.0
1989-08-24T01:46:20.830 ,1,0,0.,24.0,0.,24.0
1989-08-24T01:46:44.830 ,0,1,0.,24.0,0.,24.0
1989-08-24T01:47:08.830 ,0,0,0.,24.0,0.,24.0
1989-08-24T01:47:32.830 ,0,1,0.,24.0,0.,24.0
1989-08-24T01:47:56.830 ,0,0,0.,24.0,0.,24.0
1989-08-24T01:48:20.830 ,1,1,0.,24.0,0.,24.0
1989-08-24T01:48:44.830 ,1,0,0.,24.0,0.,24.0
1989-08-24T01:49:08.830 ,2,1,0.,24.0,0.,24.0
1989-08-24T01:49:32.830 ,2,0,0.,24.0,0.,24.0
1989-08-24T01:49:56.830 ,3,1,0.,24.0,0.,24.0
1989-08-24T01:50:20.830 ,3,0,0.,24.0,0.,24.0
1989-08-24T01:50:44.830 ,4,1,0.,24.0,0.,24.0
1989-08-24T01:51:08.830 ,4,0,0.,24.0,0.,24.0
1989-08-24T01:51:32.830 ,5,1,0.,24.0,0.,24.0
1989-08-24T01:51:56.830 ,5,0,0.,24.0,0.,24.0
1989-08-24T01:52:20.830 ,6,1,0.,24.0,0.,24.0
1989-08-24T01:52:44.830 ,6,0,0.,24.0,0.,24.0
1989-08-24T01:53:08.830 ,7,1,0.,24.0,0.,24.0
1989-08-24T01:53:32.830 ,7,0,0.,24.0,0.,24.0
1989-08-24T01:53:56.830 ,7,1,0.,24.0,0.,24.0
1989-08-24T01:54:20.830 ,7,0,0.,24.0,0.,24.0
1989-08-24T01:54:44.830 ,6,1,0.,24.0,0.,24.0
1989-08-24T01:55:08.830 ,6,0,0.,24.0,0.,24.0
1989-08-24T01:55:32.830 ,5,1,0.,24.0,0.,24.0
1989-08-24T01:55:56.830 ,5,0,0.,24.0,0.,24.0
1989-08-24T01:56:20.830 ,4,1,0.,24.0,0.,24.0
1989-08-24T01:56:44.830 ,4,0,0.,24.0,0.,24.0
1989-08-24T01:57:08.830 ,3,1,0.,24.0,0.,24.0
1989-08-24T01:57:32.830 ,3,0,0.,24.0,0.,24.0
1989-08-24T01:57:56.830 ,2,1,0.,24.0,0.,24.0
1989-08-24T01:58:20.830 ,2,0,0.,24.0,0.,24.0
1989-08-24T01:58:44.830 ,1,1,0.,24.0,0.,24.0
1989-08-24T01:59:08.830 ,1,0,0.,24.0,0.,24.0
1989-08-24T01:59:32.830 ,0,1,0.,24.0,0.,24.0
1989-08-24T01:59:56.830 ,0,0,0.,24.0,0.,24.0
1989-08-24T02:00:20.830 ,0,1,0.,24.0,0.,24.0
1989-08-24T02:00:44.830 ,0,0,0.,24.0,0.,24.0
1989-08-24T02:01:08.830 ,1,1,0.,24.0,0.,24.0
1989-08-24T02:01:32.830 ,1,0,0.,24.0,0.,24.0
1989-08-24T02:01:56.830 ,2,1,0.,24.0,0.,24.0
1989-08-24T02:02:20.830 ,2,0,0.,24.0,0.,24.0
1989-08-24T02:02:44.830 ,3,1,0.,24.0,0.,24.0
1989-08-24T02:03:08.830 ,3,0,0.,24.0,0.,24.0
1989-08-24T02:03:32.830 ,4,1,0.,24.0,0.,24.0
1989-08-24T02:03:56.830 ,4,0,0.,24.0,0.,24.0
1989-08-24T02:04:20.830 ,5,1,0.,24.0,0.,24.0
1989-08-24T02:04:44.830 ,5,0,0.,24.0,0.,24.0
1989-08-24T02:05:08.830 ,6,1,0.,24.0,0.,24.0
1989-08-24T02:05:32.830 ,6,0,0.,24.0,0.,24.0
1989-08-24T02:05:56.830 ,7,1,0.,24.0,0.,24.0
1989-08-24T02:06:20.830 ,7,0,0.,24.0,0.,24.0
1989-08-24T02:06:44.830 ,7,1,0.,24.0,0.,24.0
1989-08-24T02:07:08.830 ,7,0,0.,24.0,0.,24.0
1989-08-24T02:07:32.830 ,6,1,0.,24.0,0.,24.0
1989-08-24T02:07:56.830 ,6,0,0.,24.0,0.,24.0
1989-08-24T02:08:20.830 ,5,1,0.,24.0,0.,24.0
1989-08-24T02:08:44.830 ,5,0,0.,24.0,0.,24.0
1989-08-24T02:09:08.830 ,4,1,0.,24.0,0.,24.0
1989-08-24T02:09:32.830 ,4,0,0.,24.0,0.,24.0
1989-08-24T02:09:56.830 ,3,1,0.,24.0,0.,24.0
1989-08-24T02:10:20.830 ,3,0,0.,24.0,0.,24.0
1989-08-24T02:10:44.830 ,2,1,0.,24.0,0.,24.0
1989-08-24T02:11:08.830 ,2,0,0.,24.0,0.,24.0
1989-08-24T02:11:32.830 ,1,1,0.,24.0,0.,24.0
1989-08-24T02:11:56.830 ,1,0,0.,24.0,0.,24.0
1989-08-24T02:12:20.830 ,0,1,0.,24.0,0.,24.0
1989-08-24T02:12:44.830 ,0,0,0.,24.0,0.,24.0
1989-08-24T02:13:08.830 ,0,1,0.,24.0,0.,24.0
1989-08-24T02:13:32.830 ,0,0,0.,24.0,0.,24.0
1989-08-24T02:13:56.830 ,1,1,0.,24.0,0.,24.0
1989-08-24T02:14:20.830 ,1,0,0.,24.0,0.,24.0
1989-08-24T02:14:44.830 ,2,1,0.,24.0,0.,24.0
1989-08-24T02:15:08.830 ,2,0,0.,24.0,0.,24.0
1989-08-24T02:15:32.830 ,3,1,0.,24.0,0.,24.0
1989-08-24T02:15:56.830 ,3,0,0.,24.0,0.,24.0
1989-08-24T02:16:20.830 ,4,1,0.,24.0,0.,24.0
1989-08-24T02:16:44.830 ,4,0,0.,24.0,0.,24.0
1989-08-24T02:17:08.830 ,5,1,0.,24.0,0.,24.0
1989-08-24T02:17:32.830 ,5,0,0.,24.0,0.,24.0
1989-08-24T02:17:56.830 ,6,1,0.,24.0,0.,24.0
1989-08-24T02:18:20.830 ,6,0,0.,24.0,0.,24.0
1989-08-24T02:18:44.830 ,7,1,0.,24.0,0.,24.0
1989-08-24T02:19:08.830 ,7,0,0.,24.0,0.,24.0
1989-08-24T02:19:32.830 ,7,1,0.,24.0,0.,24.0
1989-08-24T02:19:56.830 ,7,0,0.,24.0,0.,24.0
1989-08-24T02:20:20.830 ,6,1,0.,24.0,0.,24.0
1989-08-24T02:20:44.830 ,6,0,0.,24.0,0.,24.0
1989-08-24T02:21:08.830 ,5,1,0.,24.0,0.,24.0
1989-08-24T02:21:32.830 ,5,0,0.,24.0,0.,24.0
1989-08-24T02:21:56.830 ,4,1,0.,24.0,0.,24.0
1989-08-24T02:22:20.830 ,4,0,0.,24.0,0.,24.0
1989-08-24T02:22:44.830 ,3,1,0.,24.0,0.,24.0
1989-08-24T02:23:08.830 ,3,0,0.,24.0,0.,24.0
1989-08-24T02:23:32.830 ,2,1,0.,24.0,0.,24.0
1989-08-24T02:23:56.830 ,2,0,0.,24.0,0.,24.0
1989-08-24T02:24:20.830 ,1,1,0.,24.0,0.,24.0
1989-08-24T02:24:44.830 ,1,0,0.,24.0,0.,24.0
1989-08-24T02:25:08.830 ,0,1,0.,24.0,0.,24.0
1989-08-24T02:25:32.830 ,0,0,0.,24.0,0.,24.0
1989-08-24T02:25:56.830 ,0,1,0.,24.0,0.,24.0
1989-08-24T02:26:20.830 ,0,0,0.,24.0,0.,24.0
1989-08-24T02:26:44.830 ,1,1,0.,24.0,0.,24.0
1989-08-24T02:27:08.830 ,1,0,0.,24.0,0.,24.0
1989-08-24T02:27:32.830 ,2,1,0.,24.0,0.,24.0
1989-08-24T02:27:56.830 ,2,0,0.,24.0,0.,24.0
1989-08-24T02:28:20.830 ,3,1,0.,24.0,0.,24.0
1989-08-24T02:28:44.830 ,3,0,0.,24.0,0.,24.0
1989-08-24T02:29:08.830 ,4,1,0.,24.0,0.,24.0
1989-08-24T02:29:32.830 ,4,0,0.,24.0,0.,24.0
1989-08-24T02:29:56.830 ,5,1,0.,24.0,0.,24.0
1989-08-24T02:30:20.830 ,5,0,0.,24.0,0.,24.0
1989-08-24T02:30:44.830 ,6,1,0.,24.0,0.,24.0
1989-08-24T02:31:08.830 ,6,0,0.,24.0,0.,24.0
1989-08-24T02:31:32.830 ,7,1,0.,24.0,0.,24.0
1989-08-24T02:31:56.830 ,7,0,0.,24.0,0.,24.0
1989-08-24T02:32:20.830 ,7,1,0.,24.0,0.,24.0
1989-08-24T02:32:44.830 ,7,0,0.,24.0,0.,24.0
1989-08-24T02:33:08.830 ,6,1,0.,24.0,0.,24.0
1989-08-24T02:33:32.830 ,6,0,0.,24.0,0.,24.0
1989-08-24T02:33:56.830 ,5,1,0.,24.0,0.,24.0
1989-08-24T02:34:20.830 ,5,0,0.,24.0,0.,24.0
1989-08-24T02:34:44.830 ,4,1,0.,24.0,0.,24.0
1989-08-24T02:35:08.830 ,4,0,0.,24.0,0.,24.0
1989-08-24T02:35:32.830 ,3,1,0.,24.0,0.,24.0
1989-08-24T02:35:56.830 ,3,0,0.,24.0,0.,24.0
1989-08-24T02:36:20.830 ,2,1,0.,24.0,0.,24.0
1989-08-24T02:36:44.830 ,2,0,0.,24.0,0.,24.0
1989-08-24T02:37:08.830 ,1,1,0.,24.0,0.,24.0
1989-08-24T02:37:32.830 ,1,0,0.,24.0,0.,24.0
1989-08-24T02:37:56.830 ,0,1,0.,24.0,0.,24.0
1989-08-24T02:38:20.830 ,0,0,0.,24.0,0.,24.0
1989-08-24T02:38:44.830 ,0,1,0.,24.0,0.,24.0
1989-08-24T02:39:08.830 ,0,0,0.,24.0,0.,24.0
1989-08-24T02:39:32.830 ,1,1,0.,24.0,0.,24.0
1989-08-24T02:39:56.830 ,1,0,0.,24.0,0.,24.0
1989-08-24T02:40:20.830 ,2,1,0.,24.0,0.,24.0
1989-08-24T02:40:44.830 ,2,0,0.,24.0,0.,24.0
1989-08-24T02:41:08.830 ,3,1,0.,24.0,0.,24.0
1989-08-24T02:41:32.830 ,3,0,0.,24.0,0.,24.0
1989-08-24T02:41:56.830 ,4,1,0.,24.0,0.,24.0
1989-08-24T02:42:20.830 ,4,0,0.,24.0,0.,24.0
1989-08-24T02:42:44.830 ,5,1,0.,24.0,0.,24.0
1989-08-24T02:43:08.830 ,5,0,0.,24.0,0.,24.0
1989-08-24T02:43:32.830 ,6,1,0.,24.0,0.,24.0
1989-08-24T02:43:56.830 ,6,0,0.,24.0,0.,24.0
1989-08-24T02:44:20.830 ,7,1,0.,24.0,0.,24.0
1989-08-24T02:44:44.830 ,7,0,0.,24.0,0.,24.0
1989-08-24T02:45:08.830 ,7,1,0.,24.0,0.,24.0
1989-08-24T02:45:32.830 ,7,0,0.,24.0,0.,24.0
1989-08-24T02:45:56.830 ,6,1,0.,24.0,0.,24.0
1989-08-24T02:46:20.830 ,6,0,0.,24.0,0.,24.0
1989-08-24T02:46:44.830 ,5,1,0.,24.0,0.,24.0
1989-08-24T02:47:08.830 ,5,0,0.,24.0,0.,24.0
1989-08-24T02:47:32.830 ,4,1,0.,24.0,0.,24.0
1989-08-24T02:47:56.830 ,4,0,0.,24.0,0.,24.0
1989-08-24T02:48:20.830 ,3,1,0.,24.0,0.,24.0
1989-08-24T02:48:44.830 ,3,0,0.,24.0,0.,24.0
1989-08-24T02:49:08.830 ,2,1,0.,24.0,0.,24.0
1989-08-24T02:49:32.830 ,2,0,0.,24.0,0.,24.0
1989-08-24T02:49:56.830 ,1,1,0.,24.0,0.,24.0
1989-08-24T02:50:20.830 ,1,0,0.,24.0,0.,24.0
1989-08-24T02:50:44.830 ,0,1,0.,24.0,0.,24.0
1989-08-24T02:51:08.830 ,0,0,0.,24.0,0.,24.0
1989-08-24T02:51:32.830 ,0,1,0.,24.0,0.,24.0
1989-08-24T02:51:56.830 ,0,0,0.,24.0,0.,24.0
1989-08-24T02:52:20.830 ,1,1,0.,24.0,0.,24.0
1989-08-24T02:52:44.830 ,1,0,0.,24.0,0.,24.0
1989-08-24T02:53:08.830 ,2,1,0.,24.0,0.,24.0
1989-08-24T02:53:32.830 ,2,0,0.,24.0,0.,24.0
1989-08-24T02:53:56.830 ,3,1,0.,24.0,0.,24.0
1989-08-24T02:54:20.830 ,3,0,0.,24.0,0.,24.0
1989-08-24T02:54:44.830 ,4,1,0.,24.0,0.,24.0
1989-08-24T02:55:08.830 ,4,0,0.,24.0,0.,24.0
1989-08-24T02:55:32.830 ,5,1,0.,24.0,0.,24.0
1989-08-24T02:55:56.830 ,5,0,0.,24.0,0.,24.0
1989-08-24T02:56:20.830 ,6,1,0.,24.0,0.,24.0
1989-08-24T02:56:44.830 ,6,0,0.,24.0,0.,24.0
1989-08-24T02:57:08.830 ,7,1,0.,24.0,0.,24.0
1989-08-24T02:57:32.830 ,7,0,0.,24.0,0.,24.0
1989-08-24T02:57:56.830 ,7,1,0.,24.0,0.,24.0
1989-08-24T02:58:20.830 ,7,0,0.,24.0,0.,24.0
1989-08-24T02:58:44.830 ,6,1,0.,24.0,0.,24.0
1989-08-24T02:59:08.830 ,6,0,0.,24.0,0.,24.0
1989-08-24T02:59:32.830 ,5,1,0.,24.0,0.,24.0
1989-08-24T02:59:56.830 ,5,0,0.,24.0,0.,24.0
1989-08-24T03:00:20.830 ,4,1,0.,24.0,0.,24.0
